This is the latest recevied weather packets stored in our database for station/object LW9ERO-3. If no packets are shown the sender has not sent any weather packets the latest 10 day(s).
| Time | Temp. | Humidity | Pressure | Rain* | Wind** | Luminosity | Snow |
|---|---|---|---|---|---|---|---|
| 1787692683 | 14.44° C | 53% | 1013.9 hPa | 0 mm | - | - | - |
| 1787692144 | 14.44° C | 52% | 1013.9 hPa | 0 mm | - | - | - |
| 1787691604 | 14.44° C | 51% | 1013.8 hPa | 0 mm | - | - | - |
| 1787691244 | 15° C | 51% | 1013.8 hPa | 0 mm | - | - | - |
| 1787690704 | 15° C | 47% | 1013.8 hPa | 0 mm | - | - | - |
| 1787690163 | 15° C | 47% | 1014 hPa | 0 mm | - | - | - |
| 1787689623 | 15.56° C | 44% | 1014.1 hPa | 0 mm | - | - | - |
| 1787689084 | 15.56° C | 44% | 1014.2 hPa | 0 mm | - | - | - |
| 1787688543 | 16.11° C | 43% | 1014.2 hPa | 0 mm | - | - | - |
| 1787688004 | 16.11° C | 42% | 1014.7 hPa | 0 mm | - | - | - |
| 1787687643 | 16.11° C | 44% | 1014.7 hPa | 0 mm | - | - | - |
| 1787687103 | 16.11° C | 43% | 1014.9 hPa | 0 mm | - | - | - |
| 1787686564 | 16.11° C | 44% | 1015.1 hPa | 0 mm | - | - | - |
| 1787686023 | 16.11° C | 43% | 1015.4 hPa | 0 mm | - | - | - |
| 1787685483 | 16.11° C | 43% | 1015.6 hPa | 0 mm | - | - | - |
| 1787684944 | 16.11° C | 42% | 1015.7 hPa | 0 mm | - | - | - |
| 1787684404 | 16.67° C | 42% | 1016.1 hPa | 0 mm | - | - | - |
| 1787684044 | 16.67° C | 43% | 1016 hPa | 0 mm | - | - | - |
| 1787683504 | 16.67° C | 43% | 1016.2 hPa | 0 mm | - | - | - |
| 1787682963 | 16.67° C | 44% | 1016.1 hPa | 0 mm | - | - | - |
| 1787682424 | 16.67° C | 46% | 1016.1 hPa | 0 mm | - | - | - |
| 1787681884 | 16.67° C | 46% | 1016 hPa | 0 mm | - | - | - |
| 1787681343 | 16.67° C | 48% | 1016.1 hPa | 0 mm | - | - | - |
| 1787680804 | 16.67° C | 47% | 1016.1 hPa | 0 mm | - | - | - |
| 1787680444 | 16.67° C | 49% | 1016.2 hPa | 0 mm | - | - | - |
* Rain latest hour (hover to see other rain measurements)
** Current wind speed in m/s (hover to see current wind gust speed)